Change the Weather History Date:

Monday, January 6, 2014

  Actual Average Record
Temperature  
Mean Temperature -6 °F -  
Max Temperature 0 °F 26 °F 51 °F (2012)
Min Temperature -13 °F 9 °F -14 °F (1971)
Degree Days  
Heating Degree Days 72    
Moisture  
Dew Point -20 °F    
Average Humidity 55    
Maximum Humidity 71    
Minimum Humidity 46    
Precipitation  
Precipitation 0.00 in - - ()
Sea Level Pressure  
Sea Level Pressure 30.35 in    
Wind  
Wind Speed 10 mph (WNW)    
Max Wind Speed 18 mph    
Max Gust Speed 25 mph    
Visibility 10 miles    
Events      
Averages and records for this station are not official NWS values.
T = Trace of Precipitation, MM = Missing Value Source: NWS Daily Summary

Daily Weather History Graph

Daily Weather History Graph

Search for Another Location

Airport or City:

Trip Planner

Search our weather history database for the weather conditions in past years. The results will help you decide how hot, cold, wet, or windy it might be!

Date:

Astronomy

Jan. 06, 2014 Rise Set
Actual Time 7:46 AM CST 5:04 PM CST
Civil Twilight 7:15 AM CST 5:35 PM CST
Nautical Twilight 6:40 AM CST 6:10 PM CST
Astronomical Twilight 6:07 AM CST 6:44 PM CST
Moon 10:57 AM CST (1/6) 11:44 PM CST (1/6)
Length of Visible Light 10h 20m
Length of Day
9h 17m
Waxing Crescent, 35% of the Moon is Illuminated
Jan 6
Waxing Crescent
Jan 7
First Quarter
Jan 15
Full
Jan 23
Last Quarter
Jan 30
New

Hourly Weather History & Observations

Time (CST) Temp. Windchill Dew Point Humidity Pressure Visibility Wind Dir Wind Speed Gust Speed Precip Events Conditions
3:15 AM -11.2 °F -31.1 °F -23.8 °F 54% 30.40 in 10.0 mi NW 11.5 mph 17.3 mph N/A   Clear
3:35 AM -11.2 °F -31.1 °F -25.6 °F 49% 30.39 in 10.0 mi WNW 11.5 mph 18.4 mph N/A   Clear
3:55 AM -11.2 °F -29.0 °F -25.6 °F 49% 30.39 in 10.0 mi NW 9.2 mph 16.1 mph N/A   Clear
4:15 AM -13.0 °F -30.0 °F -23.8 °F 59% 30.39 in 10.0 mi WNW 8.1 mph - N/A   Clear
4:35 AM -13.0 °F -30.0 °F -23.8 °F 59% 30.39 in 10.0 mi WNW 8.1 mph - N/A   Clear
4:55 AM -11.2 °F -33.7 °F -23.8 °F 54% 30.38 in 10.0 mi WNW 15.0 mph - N/A   Clear
5:15 AM -11.2 °F -31.1 °F -23.8 °F 54% 30.38 in 7.0 mi NW 11.5 mph 18.4 mph N/A   Clear
5:35 AM -13.0 °F -31.3 °F -23.8 °F 59% 30.38 in 10.0 mi WNW 9.2 mph 19.6 mph N/A   Clear
5:55 AM -13.0 °F -32.4 °F -23.8 °F 59% 30.38 in 10.0 mi WNW 10.4 mph 16.1 mph N/A   Clear
6:15 AM -13.0 °F -28.6 °F -23.8 °F 59% 30.38 in 10.0 mi NW 6.9 mph - N/A   Clear
6:35 AM -13.0 °F -31.3 °F -23.8 °F 59% 30.38 in 10.0 mi WNW 9.2 mph 16.1 mph N/A   Clear
6:55 AM -13.0 °F -33.4 °F -23.8 °F 59% 30.38 in 10.0 mi WNW 11.5 mph 18.4 mph N/A   Clear
7:15 AM -13.0 °F -30.0 °F -23.8 °F 59% 30.39 in 10.0 mi NW 8.1 mph 18.4 mph N/A   Clear
7:35 AM -13.0 °F -33.4 °F -23.8 °F 59% 30.39 in 10.0 mi NW 11.5 mph 17.3 mph N/A   Clear
7:55 AM -13.0 °F -30.0 °F -23.8 °F 59% 30.40 in 10.0 mi WNW 8.1 mph - N/A   Clear
8:15 AM -13.0 °F -31.3 °F -23.8 °F 59% 30.40 in 10.0 mi WNW 9.2 mph 18.4 mph N/A   Clear
8:35 AM -11.2 °F -30.1 °F -23.8 °F 54% 30.40 in 10.0 mi WNW 10.4 mph 16.1 mph N/A   Clear
8:55 AM -11.2 °F -32.1 °F -23.8 °F 54% 30.41 in 10.0 mi WNW 12.7 mph 16.1 mph N/A   Clear
9:15 AM -11.2 °F -32.1 °F -23.8 °F 54% 30.40 in 10.0 mi WNW 12.7 mph 19.6 mph N/A   Clear
9:35 AM -9.4 °F -30.6 °F -23.8 °F 49% 30.40 in 10.0 mi WNW 13.8 mph 21.9 mph N/A   Clear
9:55 AM -9.4 °F -31.4 °F -23.8 °F 49% 30.41 in 10.0 mi NW 15.0 mph 25.3 mph N/A   Clear
10:15 AM -9.4 °F -30.6 °F -22.0 °F 54% 30.41 in 10.0 mi NW 13.8 mph 24.2 mph N/A   Clear
10:35 AM -7.6 °F -27.5 °F -22.0 °F 50% 30.41 in 10.0 mi NW 12.7 mph 23.0 mph N/A   Clear
10:55 AM -7.6 °F -29.1 °F -22.0 °F 50% 30.41 in 10.0 mi NW 15.0 mph 24.2 mph N/A   Clear
11:15 AM -5.8 °F -26.0 °F -20.2 °F 50% 30.40 in 10.0 mi WNW 13.8 mph 21.9 mph N/A   Clear
11:35 AM -5.8 °F -24.4 °F -20.2 °F 50% 30.40 in 10.0 mi NW 11.5 mph 20.7 mph N/A   Clear
11:55 AM -5.8 °F -28.8 °F -20.2 °F 50% 30.39 in 10.0 mi WNW 18.4 mph 24.2 mph N/A   Clear
12:15 PM -5.8 °F -26.0 °F -20.2 °F 50% 30.38 in 7.0 mi WNW 13.8 mph 24.2 mph N/A   Clear
12:35 PM -4.0 °F -23.7 °F -18.4 °F 50% 30.37 in 10.0 mi WNW 13.8 mph 21.9 mph N/A   Clear
12:55 PM -4.0 °F -23.7 °F -18.4 °F 50% 30.36 in 10.0 mi WNW 13.8 mph 23.0 mph N/A   Clear
1:15 PM -2.2 °F -24.1 °F -18.4 °F 46% 30.36 in 10.0 mi WNW 18.4 mph 21.9 mph N/A   Clear
1:35 PM -2.2 °F -20.7 °F -18.4 °F 46% 30.35 in 10.0 mi WNW 12.7 mph 20.7 mph N/A   Scattered Clouds
1:55 PM -2.2 °F -23.5 °F -18.4 °F 46% 30.35 in 10.0 mi WNW 17.3 mph 23.0 mph N/A   Clear
2:15 PM -2.2 °F -20.7 °F -18.4 °F 46% 30.35 in 10.0 mi WNW 12.7 mph 25.3 mph N/A   Clear
2:35 PM -2.2 °F -21.5 °F -18.4 °F 46% 30.35 in 10.0 mi WNW 13.8 mph 20.7 mph N/A   Clear
2:55 PM -0.4 °F -18.4 °F -16.6 °F 46% 30.35 in 10.0 mi WNW 12.7 mph 21.9 mph N/A   Clear
3:15 PM -0.4 °F -17.6 °F -16.6 °F 46% 30.35 in 10.0 mi WNW 11.5 mph 20.7 mph N/A   Clear
3:35 PM -2.2 °F -16.8 °F -16.6 °F 50% 30.36 in 10.0 mi West 8.1 mph 18.4 mph N/A   Clear
3:55 PM -0.4 °F -17.6 °F -16.6 °F 46% 30.35 in 10.0 mi West 11.5 mph 18.4 mph N/A   Clear
4:15 PM -0.4 °F -18.4 °F -16.6 °F 46% 30.35 in 10.0 mi WNW 12.7 mph 18.4 mph N/A   Clear
4:35 PM -2.2 °F -20.7 °F -16.6 °F 50% 30.35 in 10.0 mi WNW 12.7 mph 21.9 mph N/A   Clear
4:55 PM -2.2 °F -18.9 °F -16.6 °F 50% 30.35 in 10.0 mi WNW 10.4 mph - N/A   Clear
5:15 PM -2.2 °F -18.0 °F -16.6 °F 50% 30.34 in 10.0 mi WNW 9.2 mph - N/A   Clear
5:35 PM -2.2 °F -14.2 °F -16.6 °F 50% 30.33 in 10.0 mi West 5.8 mph - N/A   Clear
5:55 PM -4.0 °F -12.4 °F -16.6 °F 55% 30.33 in 10.0 mi West 3.5 mph - N/A   Clear
6:15 PM -4.0 °F - -16.6 °F 55% 30.33 in 10.0 mi Calm Calm - N/A   Clear
6:35 PM -7.6 °F - -18.4 °F 59% 30.33 in 10.0 mi Calm Calm - N/A   Clear
6:55 PM -7.6 °F - -18.4 °F 59% 30.33 in 10.0 mi Calm Calm - N/A   Clear
7:15 PM -7.6 °F - -18.4 °F 59% 30.33 in 10.0 mi Calm Calm - N/A   Clear
7:35 PM -9.4 °F -22.7 °F -18.4 °F 65% 30.32 in 10.0 mi WSW 5.8 mph - N/A   Clear
7:55 PM -7.6 °F -22.1 °F -18.4 °F 59% 30.32 in 10.0 mi WSW 6.9 mph - N/A   Clear
8:15 PM -9.4 °F -20.9 °F -18.4 °F 65% 30.31 in 10.0 mi WSW 4.6 mph - N/A   Clear
8:35 PM -9.4 °F -22.7 °F -18.4 °F 65% 30.30 in 10.0 mi WSW 5.8 mph - N/A   Clear
8:55 PM -7.6 °F -20.6 °F -18.4 °F 59% 30.30 in 10.0 mi WSW 5.8 mph - N/A   Clear
9:15 PM -9.4 °F -24.3 °F -18.4 °F 65% 30.29 in 10.0 mi WSW 6.9 mph - N/A   Clear
9:35 PM -9.4 °F -22.7 °F -18.4 °F 65% 30.29 in 10.0 mi WSW 5.8 mph - N/A   Clear
9:55 PM -9.4 °F -24.3 °F -18.4 °F 65% 30.29 in 10.0 mi WSW 6.9 mph - N/A   Clear
10:15 PM -9.4 °F -20.9 °F -18.4 °F 65% 30.28 in 10.0 mi WSW 4.6 mph - N/A   Clear
10:35 PM -11.2 °F -24.8 °F -18.4 °F 70% 30.27 in 10.0 mi WSW 5.8 mph - N/A   Clear
10:55 PM -9.4 °F -22.7 °F -18.4 °F 65% 30.27 in 10.0 mi WSW 5.8 mph - N/A   Clear
11:15 PM -9.4 °F -24.3 °F -16.6 °F 71% 30.27 in 10.0 mi WSW 6.9 mph - N/A   Clear
11:35 PM -9.4 °F -20.9 °F -18.4 °F 65% 30.26 in 10.0 mi WSW 4.6 mph - N/A   Clear
11:55 PM -9.4 °F -20.9 °F -18.4 °F 65% 30.25 in 10.0 mi WSW 4.6 mph - N/A   Clear